User: anonymous   Login
Location: Ertinghausen
(51.6624°N, 9.7874°E)
Time: 07:14:25
(UTC+00:00)
Language:

UNK - Orbit

View from above orbital plane
View from above orbital plane
View from above satellite
View from above satellite

Ground track
Ground track

The orbit data is extracted from the following two-line orbital elements,

1 27940U 03042B   24201.89504322  .00001766  00000-0  32128-3 0  9992
2 27940  98.3183 353.5251 0014059  36.7662 323.4504 14.67351991112213
Epoch (UTC): 19 July 2024 21:28:51
Eccentricity: 0.0014059
inclination: 98.3183°
perigee height: 659 km
apogee height: 679 km
right ascension of ascending node: 353.5251°
argument of perigee: 36.7662°
revolutions per day: 14.67351991
mean anomaly at epoch: 323.4504°
orbit number at epoch: 11221

The dashed part of the orbit path shows where the satellite is in the earth's shadow,  

DLR